Regional Weather Roundup
Issued by NWS

Home | Current Version | Previous Version | Graphics & Text | Print | Product List | Glossary On
Versions: 1 2 3 4 5 6 7 8 9 10 11 12 13 14 15 16 17 18 19 20 21 22 23 24 25 26 27 28 29 30 31 32 33 34 35 36 37 38 39 40 41 42 43 44 45 46 47 48 49 50
000
ASUS43 KFSD 051210
RWRSD

WEATHER ROUNDUP FOR SOUTH DAKOTA
NATIONAL WEATHER SERVICE SIOUX FALLS SD
700 AM CDT SAT SEP 05 2015

NOTE: "FAIR" INDICATES FEW OR NO CLOUDS BELOW 12,000 FEET WITH NO
SIGNIFICANT WEATHER AND/OR OBSTRUCTIONS TO VISIBILITY.


SDZ001>005-009-010-012>017-051300-
NORTHWEST AND NORTH CENTRAL SOUTH DAKOTA

CITY           SKY/WX    TMP DP  RH WIND       PRES   REMARKS
BUFFALO          N/A     64  61  90 E16       29.75F
FAITH            N/A     69  64  84 CALM      29.82R
MOBRIDGE       FOG       71  71 100 CALM      29.78R VSB 1
$$

SDZ012>016-024>037-041>051-057-063-072>074-051300-
SOUTHWEST AND SOUTH CENTRAL SOUTH DAKOTA

CITY           SKY/WX    TMP DP  RH WIND       PRES   REMARKS
RAPID CTY ARPT CLOUDY    67  59  75 N5        29.83S
PIERRE         CLOUDY    69  68  96 E6        29.74F
CUSTER         CLOUDY    57  53  86 CALM      29.96F
PHILIP         CLOUDY    67  65  93 MISG      29.80R
PINE RIDGE     CLOUDY    65  60  84 SE6       29.83F
WINNER         FAIR      74  61  63 S8        29.78R
$$

SDZ004>011-016>023-039-040-051300-
NORTHEAST SOUTH DAKOTA

CITY           SKY/WX    TMP DP  RH WIND       PRES   REMARKS
ABERDEEN       CLEAR     67  65  93 NE6       29.79F FOG
WATERTOWN      CLEAR     70  67  90 S10       29.84S
BROOKINGS      CLEAR     70  64  83 SE12      29.87S
SISSETON         N/A     68  68 100 CALM      29.82F
$$

SDZ017-020-022-023-036>040-048>070-051300-
SOUTHEAST SOUTH DAKOTA

CITY           SKY/WX    TMP DP  RH WIND       PRES   REMARKS
SIOUX FALLS    MOCLDY    71  67  87 S9        29.86S
HURON          PTCLDY    70  67  90 SE9       29.77F
CHAMBERLAIN    CLOUDY    67  66  99 SE7       29.77S
MITCHELL       MOCLDY    70  68  93 SE7       29.80S
YANKTON        CLOUDY    75  66  73 S14G20    29.81S
$$

ABBREVIATIONS USED IN REMARKS
   TC - TEMPERATURE IN CELSIUS
  WCI - WIND CHILL INDEX
   HX - HEAT INDEX
  VSB - VISIBILITY




USA.gov is the U.S. government's official web portal to all federal, state and local government web resources and services.